This is the latest recevied weather packets stored in our database for station/object DC4AT. If no packets are shown the sender has not sent any weather packets the latest 10 day(s).
| Time | Temp. | Humidity | Pressure | Rain* | Wind** | Luminosity | Snow |
|---|---|---|---|---|---|---|---|
| 1787647664 | 19.44° C | 61% | 1016.5 hPa | 0 mm | - | 490 W/m² | - |
| 1787647064 | 19.44° C | 63% | 1016.6 hPa | 0 mm | - | 464 W/m² | - |
| 1787646464 | 18.89° C | 63% | 1016.6 hPa | 0 mm | - | 439 W/m² | - |
| 1787645864 | 18.89° C | 64% | 1016.6 hPa | 0 mm | - | 346 W/m² | - |
| 1787645264 | 18.33° C | 66% | 1016.5 hPa | 0 mm | - | 301 W/m² | - |
| 1787644664 | 17.78° C | 71% | 1016.5 hPa | 0 mm | - | 294 W/m² | - |
| 1787644064 | 16.67° C | 78% | 1016.5 hPa | 0 mm | - | 329 W/m² | - |
| 1787643464 | 15.56° C | 80% | 1016.5 hPa | 0 mm | - | 267 W/m² | - |
| 1787642864 | 15° C | 79% | 1016.7 hPa | 0 mm | - | 244 W/m² | - |
| 1787642264 | 14.44° C | 82% | 1016.7 hPa | 0 mm | - | 264 W/m² | - |
| 1787641664 | 14.44° C | 83% | 1016.7 hPa | 0 mm | - | 246 W/m² | - |
| 1787641064 | 13.33° C | 86% | 1016.8 hPa | 0 mm | - | 250 W/m² | - |
| 1787640464 | 12.22° C | 86% | 1016.8 hPa | 0 mm | - | 250 W/m² | - |
| 1787639864 | 12.22° C | 86% | 1016.8 hPa | 0 mm | - | 234 W/m² | - |
| 1787639264 | 11.67° C | 86% | 1016.7 hPa | 0 mm | - | 207 W/m² | - |
| 1787638664 | 11.67° C | 86% | 1016.8 hPa | 0 mm | - | 186 W/m² | - |
| 1787638064 | 11.11° C | 85% | 1016.8 hPa | 0 mm | - | 165 W/m² | - |
| 1787637464 | 10° C | 84% | 1016.8 hPa | 0 mm | - | 141 W/m² | - |
| 1787636864 | 10° C | 85% | 1016.7 hPa | 0 mm | - | 116 W/m² | - |
| 1787636265 | 9.44° C | 85% | 1016.6 hPa | 0 mm | - | 95 W/m² | - |
| 1787635665 | 9.44° C | 85% | 1016.6 hPa | 0 mm | - | 44 W/m² | - |
| 1787635065 | 9.44° C | 85% | 1016.7 hPa | 0 mm | - | 18 W/m² | - |
| 1787634465 | 9.44° C | 85% | 1016.8 hPa | 0 mm | - | 14 W/m² | - |
| 1787633865 | 9.44° C | 85% | 1016.8 hPa | 0 mm | - | 12 W/m² | - |
| 1787633265 | 9.44° C | 85% | 1016.8 hPa | 0 mm | - | 9 W/m² | - |
* Rain latest hour (hover to see other rain measurements)
** Current wind speed in m/s (hover to see current wind gust speed)